Cahokia, IL

1:53 AM CST on December 11, 2017 (GMT -0600)
Saint Louis Downtown

Weather History for KCPS - December, 2012

Change the Weather History Date:

Tuesday, December 25, 2012

  Actual Average Record
Temperature  
Mean Temperature 29 °F -  
Max Temperature 34 °F 39 °F 64 °F (2016)
Min Temperature 24 °F 21 °F 1 °F (2000)
Degree Days  
Heating Degree Days 36    
Moisture  
Dew Point 22 °F    
Average Humidity 74    
Maximum Humidity 81    
Minimum Humidity 69    
Precipitation  
Precipitation 0.00 in - - ()
Sea Level Pressure  
Sea Level Pressure 30.15 in    
Wind  
Wind Speed 10 mph (NNE)    
Max Wind Speed 18 mph    
Max Gust Speed 23 mph    
Visibility 9 miles    
Events      
Averages and records for this station are not official NWS values.
T = Trace of Precipitation, MM = Missing Value Source: NWS Daily Summary

Daily Weather History Graph

Daily Weather History Graph

Search for Another Location

Airport or City:

Trip Planner

Search our weather history database for the weather conditions in past years. The results will help you decide how hot, cold, wet, or windy it might be!

Date:

Astronomy

Dec. 25, 2012 Rise Set
Actual Time 7:16 AM CST 4:45 PM CST
Civil Twilight 6:46 AM CST 5:15 PM CST
Nautical Twilight 6:13 AM CST 5:48 PM CST
Astronomical Twilight 5:41 AM CST 6:20 PM CST
Moon 2:53 PM CST (12/25) 4:49 AM CST (12/25)
Length of Visible Light 10h 28m
Length of Day
9h 28m
Waxing Gibbous, 94% of the Moon is Illuminated
Dec 25
Waxing Gibbous
Dec 28
Full
Jan 4
Last Quarter
Jan 11
New
Jan 18
First Quarter

Hourly Weather History & Observations

Time (CST) Temp. Windchill Dew Point Humidity Pressure Visibility Wind Dir Wind Speed Gust Speed Precip Events Conditions
12:53 AM 24.1 °F 17.0 °F 16.0 °F 71% 30.17 in 10.0 mi North 5.8 mph - N/A   Overcast
1:36 AM 24.8 °F 16.1 °F 15.8 °F 69% 30.15 in 10.0 mi North 8.1 mph - N/A   Overcast
1:53 AM 24.1 °F 15.2 °F 16.0 °F 71% 30.18 in 10.0 mi North 8.1 mph - N/A   Overcast
2:21 AM 24.8 °F 15.3 °F 15.8 °F 69% 30.17 in 10.0 mi North 9.2 mph - N/A   Overcast
3:53 AM 25.0 °F 17.1 °F 17.1 °F 72% 30.20 in 10.0 mi North 6.9 mph - N/A   Overcast
4:53 AM 25.0 °F 17.1 °F 18.0 °F 75% 30.19 in 10.0 mi North 6.9 mph - N/A   Clear
5:53 AM 25.0 °F 15.5 °F 18.0 °F 75% 30.19 in 9.0 mi NNE 9.2 mph - N/A   Clear
6:53 AM 25.0 °F 15.5 °F 19.0 °F 78% 30.16 in 8.0 mi NNE 9.2 mph - N/A   Clear
7:53 AM 25.0 °F 18.1 °F 19.9 °F 81% 30.21 in 6.0 mi North 5.8 mph - N/A   Haze
10:53 AM 30.0 °F 20.0 °F 23.0 °F 75% 30.25 in 7.0 mi North 12.7 mph - N/A   Overcast
12:04 PM 30.2 °F 20.2 °F 24.8 °F 80% 30.16 in 8.0 mi NNE 12.7 mph - N/A   Overcast
12:12 PM 32.0 °F 22.1 °F 24.8 °F 75% 30.16 in 8.0 mi NNE 13.8 mph - N/A   Overcast
12:42 PM 33.8 °F 24.3 °F 24.8 °F 70% 30.15 in 9.0 mi North 13.8 mph - N/A   Mostly Cloudy
12:53 PM 34.0 °F 25.5 °F 26.1 °F 73% 30.16 in 10.0 mi NNE 11.5 mph - N/A   Scattered Clouds
1:36 PM 33.8 °F 23.2 °F 24.8 °F 70% 30.12 in 10.0 mi NNE 17.3 mph 23.0 mph N/A   Mostly Cloudy
1:53 PM 34.0 °F 23.0 °F 25.0 °F 70% 30.13 in 10.0 mi NNE 18.4 mph - N/A   Overcast
3:53 PM 34.0 °F 26.0 °F 26.1 °F 73% 30.14 in 10.0 mi NE 10.4 mph - N/A   Overcast
4:16 PM 33.8 °F 24.8 °F 26.6 °F 75% 30.13 in 10.0 mi NNE 12.7 mph - N/A   Overcast
5:53 PM 33.1 °F 21.9 °F 26.1 °F 75% 30.13 in 10.0 mi NNE 18.4 mph - N/A   Overcast
6:53 PM 32.0 °F 22.1 °F 26.1 °F 79% 30.10 in 10.0 mi NNE 13.8 mph 23.0 mph N/A   Overcast
7:53 PM 32.0 °F 21.2 °F 26.1 °F 79% 30.08 in 10.0 mi NNE 16.1 mph - N/A   Overcast
8:53 PM 32.0 °F 20.8 °F 25.0 °F 75% 30.09 in 10.0 mi NNE 17.3 mph - N/A   Overcast
9:53 PM 32.0 °F 20.5 °F 26.1 °F 79% 30.06 in 10.0 mi North 18.4 mph - N/A   Overcast